This is the latest recevied weather packets stored in our database for station/object KI8L. If no packets are shown the sender has not sent any weather packets the latest 10 day(s).
| Time | Temp. | Humidity | Pressure | Rain* | Wind** | Luminosity | Snow |
|---|---|---|---|---|---|---|---|
| 1777779088 | 3.33° C | 99% | 1019.4 hPa | 0 mm | - | 0 W/m² | - |
| 1777778786 | 3.33° C | 98% | 1019.4 hPa | 0 mm | - | 0 W/m² | - |
| 1777778485 | 3.33° C | 98% | 1019.4 hPa | 0 mm | - | 0 W/m² | - |
| 1777778182 | 3.33° C | 97% | 1019.2 hPa | 0 mm | - | 0 W/m² | - |
| 1777777879 | 3.33° C | 96% | 1019.3 hPa | 0 mm | - | 0 W/m² | - |
| 1777777575 | 3.33° C | 96% | 1019.6 hPa | 0 mm | - | 0 W/m² | - |
| 1777777272 | 3.33° C | 96% | 1019.5 hPa | 0 mm | - | 0 W/m² | - |
| 1777776968 | 3.33° C | 96% | 1019.5 hPa | 0 mm | - | 0 W/m² | - |
| 1777776667 | 3.33° C | 96% | 1019.5 hPa | 0 mm | - | 0 W/m² | - |
| 1777776363 | 3.33° C | 96% | 1019.6 hPa | 0 mm | - | 0 W/m² | - |
| 1777776060 | 3.33° C | 96% | 1019.6 hPa | 0 mm | - | 0 W/m² | - |
| 1777775757 | 3.33° C | 96% | 1019.6 hPa | 0 mm | - | 0 W/m² | - |
| 1777775454 | 3.33° C | 96% | 1019.7 hPa | 0 mm | - | 0 W/m² | - |
| 1777775150 | 3.33° C | 97% | 1019.8 hPa | 0 mm | - | 0 W/m² | - |
| 1777774844 | 3.33° C | 94% | 1019.6 hPa | 0 mm | - | 0 W/m² | - |
| 1777774542 | 3.33° C | 94% | 1019.7 hPa | 0 mm | - | 0 W/m² | - |
| 1777774238 | 3.33° C | 95% | 1019.8 hPa | 0 mm | - | 0 W/m² | - |
| 1777773936 | 3.33° C | 96% | 1019.7 hPa | 0 mm | - | 0 W/m² | - |
| 1777773633 | 3.89° C | 96% | 1019.6 hPa | 0 mm | - | 0 W/m² | - |
| 1777773329 | 3.89° C | 96% | 1019.5 hPa | 0 mm | - | 0 W/m² | - |
| 1777773027 | 3.89° C | 96% | 1019.4 hPa | 0 mm | - | 0 W/m² | - |
| 1777771513 | 3.89° C | 91% | 1019.5 hPa | 0 mm | - | 0 W/m² | - |
| 1777771209 | 3.89° C | 94% | 1019.5 hPa | 0 mm | - | 0 W/m² | - |
| 1777767572 | 5° C | 80% | 1019.4 hPa | 0 mm | - | 2 W/m² | - |
| 1777766663 | 5° C | 77% | 1019.4 hPa | 0 mm | - | 8 W/m² | - |
* Rain latest hour (hover to see other rain measurements)
** Current wind speed in m/s (hover to see current wind gust speed)